Flag for U.S.A. Weather past 2 weeks in Cincinnati, Ohio, U.S.A.

Now
77 °F

Scattered clouds.


Feels Like: 79 °F
Forecast: 56 / 75 °F
Wind: 15 mph from West

Location: Cincinnati Municipal Airport Lunken Field

Current Time: Sep 21, 2014 at 1:04:21 PM

Latest Report: Sep 21, 2014 at 11:53 AM


Visibility: 10 mi

Pressure: 29.83 "Hg

Humidity: 60%

Dew point: 62 °F

Location of CincinnatiLocation

Historic Weather in Cincinnati — Graph

°F

Cincinnati temperature yesterday

Maximum temperature yesterday: 81 °F (at 3:53 PM)
Minimum temperature yesterday: 52 °F (at 2:53 AM)
Average temperature yesterday: 66 °F

Past Weeks' High & Low Weather Summary

 TemperatureHumidityPressure
High84 °F (Sep 9, 4:53 PM)100% (Sep 7, 2:53 AM)30.34 "Hg (Sep 7, 2:53 AM)
Low43 °F (Sep 14, 6:53 AM)37% (Sep 9, 5:53 PM)29.78 "Hg (Sep 10, 7:53 PM)
Average63 °F79%30.09 "Hg
* Reported Sep 6 11:53 AM — Sep 21 11:53 AM, Cincinnati, Weather by CustomWeather, © 2014

Note: Actual official high and low records may vary slightly from our data, if they occured in-between our weather recording intervals... More about our weather records

Advertising

Cincinnati weather history for previous 24 hours

 ConditionsComfort  
Time TempWeatherWind HumidityBarometerVisibility
11:53 AM
Sep 21
77 °FScattered clouds.15 mph60%29.83 "Hg10 mi
10:53 AM77 °FBroken clouds.13 mph66%29.83 "Hg10 mi
9:53 AM74 °FPartly sunny.15 mph76%29.82 "Hg10 mi
8:53 AM73 °FScattered clouds.10 mph81%29.82 "Hg10 mi
7:53 AM72 °FOvercast.14 mph81%29.83 "Hg10 mi
6:53 AM71 °FPassing clouds.9 mph84%29.81 "Hg10 mi
5:53 AM71 °FClear.9 mph81%29.80 "Hg10 mi
4:53 AM70 °FClear.7 mph84%29.82 "Hg10 mi
3:53 AM69 °FPassing clouds.8 mph87%29.85 "Hg10 mi
2:53 AM68 °FClear.8 mph87%29.86 "Hg10 mi
1:53 AM68 °FClear.6 mph87%29.88 "Hg10 mi
12:53 AM70 °FPassing clouds.5 mph84%29.91 "Hg10 mi
11:53 PM
Sep 20
69 °FClear.9 mph87%29.92 "Hg10 mi
10:53 PM69 °FClear.8 mph87%29.94 "Hg10 mi
9:53 PM69 °FPassing clouds.No wind87%29.96 "Hg10 mi
8:53 PM69 °FClear.3 mph84%29.97 "Hg10 mi
7:53 PM72 °FSunny.5 mph76%29.96 "Hg10 mi
6:53 PM78 °FPassing clouds.9 mph60%29.92 "Hg10 mi
5:53 PM80 °FScattered clouds.15 mph56%29.93 "Hg10 mi
4:53 PM81 °FPassing clouds.14 mph58%29.95 "Hg10 mi
3:53 PM81 °FBroken clouds.14 mph58%29.97 "Hg10 mi
2:53 PM80 °FPartly sunny.12 mph62%30.01 "Hg10 mi
1:53 PM79 °FPartly sunny.12 mph65%30.04 "Hg10 mi
Weather by CustomWeather, © 2014

See weather overviewHow to use our weather pages